Lapse_Rate
1.1 0.3 0.4 0.2 0.8 1.9 3.2 2.3 2.1 2.8 2.8 2.8 3.1 3.1 2.4 2.5 2.5 2.9 3.5 3.4 3.1 2.1 1.7 1.4 1.9 1.5 0.5 0.8 1.9 2.0 2.6 2.6
2.0 1.8 1.7 1.3 2.1 2.7 3.8 3.2 3.2 3.5 2.7 2.9 2.5 2.6 1.8 1.5 2.1 2.4 2.3 1.8 2.0 1.4 0.7 0.9 1.2 0.1 0.1 1.1 1.9 2.4 2.9 2.0
3.1 3.0 2.8 3.1 3.6 3.4 2.3 3.3 3.0 2.9 2.4 1.5 1.7 1.1 1.6 2.1 1.4 0.9 1.2 1.2 1.5 1.2 0.7 0.2 0.7 0.9 1.2 1.7 2.0 2.6 3.3 3.0
3.6 3.0 2.2 1.6 1.5 1.5 2.2 2.6 2.8 2.7 2.4 1.6 1.9 1.9 1.5 1.1 0.5 -0.2 0.3 1.2 1.4 1.7 2.2 2.5 2.4 2.3 2.5 2.0 2.2 2.3 3.3 3.3
3.0 2.6 2.1 1.9 1.2 1.4 1.8 2.4 2.3 2.1 1.8 1.8 2.4 2.0 1.9 0.3 0.2 0.1 1.0 2.8 3.8 4.3 4.0 3.0 2.7 2.8 2.7 3.1 2.8 2.5 3.1 3.8
2.6 2.5 1.7 0.6 0.6 0.6 0.9 1.2 1.0 0.8 0.8 1.1 0.8 0.6 0.5 1.0 1.6 2.1 2.5 3.4 4.0 4.1 4.0 3.8 3.2 3.1 2.8 2.9 2.9 3.1 3.4 4.1
3.1 1.6 1.8 1.4 1.6 1.5 0.8 0.8 0.6 0.7 1.2 1.3 1.6 2.3 2.9 3.5 3.7 3.8 3.7 3.4 3.1 3.8 3.9 3.4 3.7 4.0 3.7 3.3 3.6 4.0 4.1 4.5
2.5 3.1 3.4 2.5 1.2 0.8 1.2 1.4 1.7 2.1 2.5 2.9 3.5 4.2 4.3 4.4 4.5 4.2 4.2 3.5 2.9 2.8 3.2 3.2 3.4 4.8 5.2 5.1 4.2 4.0 4.4 4.6
3.7 3.3 1.8 1.3 1.2 1.4 1.7 2.2 2.6 3.1 3.7 3.9 3.6 4.0 3.7 4.1 4.4 4.2 3.8 3.3 2.9 3.2 3.6 4.1 4.8 5.2 5.7 5.7 4.6 4.5 4.8 4.7
2.6 2.4 1.9 1.7 2.0 2.1 2.4 3.1 3.7 4.1 4.1 3.2 3.4 3.2 3.4 3.8 3.7 3.0 2.4 2.3 3.5 3.9 4.7 5.4 5.0 5.3 6.1 5.6 4.5 4.6 4.6 4.9
2.6 2.6 2.5 2.4 2.0 2.3 3.1 3.6 4.2 3.9 3.2 2.8 3.0 2.8 3.3 3.2 2.5 2.3 2.3 2.6 4.0 4.3 4.8 4.6 5.3 6.3 6.4 5.2 4.8 4.6 4.6 4.3
3.0 3.0 3.0 2.9 3.2 3.4 3.2 3.4 3.5 3.2 2.8 2.8 3.1 3.4 3.2 2.9 3.1 3.3 3.5 3.8 4.1 4.2 4.4 4.8 5.6 6.1 5.4 4.6 4.4 4.8 4.6 4.4
3.1 3.2 3.4 3.4 3.1 2.3 2.5 2.9 3.4 3.3 3.2 3.4 3.6 3.3 3.3 3.7 3.7 3.9 3.8 3.5 4.3 4.6 5.6 6.1 6.3 5.2 4.4 4.4 5.0 4.5 4.3 4.3
3.7 3.7 4.2 4.4 2.9 2.7 3.2 3.5 3.5 3.4 3.4 3.6 3.4 3.6 4.0 4.2 4.2 4.2 3.9 3.4 3.6 5.3 6.1 5.6 5.3 4.5 5.2 5.4 4.2 4.0 4.0 4.0
3.4 3.4 4.1 3.7 3.4 4.0 3.8 3.1 3.3 3.6 3.5 3.2 3.4 3.9 4.0 3.8 3.8 3.7 3.7 3.8 4.5 6.0 5.4 5.1 4.9 5.2 5.1 4.2 4.2 4.0 3.8 4.3
3.5 3.5 3.5 3.4 4.2 3.4 3.1 3.3 3.4 3.5 3.4 3.6 3.9 3.9 3.7 3.8 3.9 4.1 4.2 4.4 5.1 6.7 5.7 5.1 4.9 4.4 4.6 4.4 4.2 4.0 3.9 4.2
4.1 4.4 4.8 4.6 3.7 2.9 3.1 3.7 3.7 3.6 3.5 3.7 3.9 4.1 4.4 4.3 4.3 4.4 4.7 4.8 4.5 4.7 5.1 4.7 4.2 4.7 5.4 5.7 4.5 3.7 4.0 4.5
4.9 4.8 4.6 3.8 3.2 3.0 3.8 3.7 3.3 3.3 3.4 3.6 4.1 4.4 4.5 4.6 4.7 4.7 4.9 4.8 4.3 3.7 3.4 3.3 3.4 4.0 5.2 5.4 4.7 4.0 3.8 4.1
4.5 4.3 3.7 3.1 2.8 3.7 3.2 3.2 3.2 3.4 3.7 4.1 4.6 4.7 4.7 4.7 4.7 4.9 4.7 4.3 4.0 3.4 3.6 3.7 3.7 4.1 5.0 5.4 5.5 3.7 3.5 4.3
Wind_Speed
8 9 9 9 10 11 9 7 10 6 5 7 7 8 7 13 11 9 12 13 10 13 11 12 13 7 4 4 3 2 2 1
7 8 8 9 7 9 8 7 4 3 2 3 3 2 1 3 9 10 10 16 15 14 12 11 9 5 4 4 2 3 3 4
7 7 7 7 5 5 7 7 6 5 4 2 2 2 1 5 10 15 15 13 11 12 10 6 8 4 5 5 4 2 2 3
6 8 6 7 6 7 7 7 6 4 5 3 3 4 4 3 3 3 7 10 11 12 11 9 6 4 3 3 3 4 2 2
6 6 6 8 6 6 7 6 6 4 4 4 3 2 2 1 2 2 5 6 6 5 4 5 4 2 4 3 3 2 2 2
8 10 7 6 6 6 6 6 7 6 7 7 5 5 3 2 2 5 3 2 2 1 0 3 3 3 2 3 2 2 0 1
2 6 6 6 5 6 7 8 7 7 8 7 8 7 4 1 1 2 3 2 4 6 3 4 7 3 0 0 1 2 2 2
4 6 4 2 8 7 7 7 6 6 7 6 4 2 1 3 3 3 4 3 3 1 2 3 2 2 3 3 2 2 2 2
5 5 5 5 7 7 7 6 5 3 3 2 0 2 2 4 4 4 4 4 3 6 6 2 2 4 6 7 3 3 3 3
7 6 6 6 7 6 6 4 1 0 3 4 5 4 4 4 6 5 4 5 3 2 3 2 6 7 12 6 4 4 4 4
6 6 6 4 6 6 5 4 3 1 2 2 3 5 6 6 6 6 6 4 2 4 8 7 6 9 8 6 4 4 4 3
7 6 5 6 4 6 5 2 3 4 4 4 5 4 4 4 4 4 5 6 9 7 5 4 4 4 7 5 5 5 5 3
6 6 5 4 5 5 6 4 3 2 2 2 2 3 4 4 4 6 8 7 9 5 3 4 4 6 5 4 6 3 2 4
4 4 4 4 5 5 4 4 3 1 0 2 3 4 3 4 5 6 6 6 5 5 4 5 6 6 4 3 1 0 2 5
5 4 4 2 3 4 5 4 3 2 3 4 5 5 5 5 6 6 6 6 6 5 5 6 5 3 1 3 2 3 5 5
6 4 3 4 5 5 4 3 3 4 6 6 7 5 5 5 6 6 6 6 5 5 5 5 3 3 3 2 3 5 5 5
6 6 5 6 6 6 4 4 5 4 6 6 5 4 5 6 6 6 6 6 5 3 3 3 4 4 6 7 6 4 5 7
7 7 6 6 6 5 4 4 4 5 6 6 5 4 5 6 6 6 6 5 4 4 3 4 5 4 8 8 8 4 5 6
6 5 4 3 3 2 3 4 5 5 6 6 5 5 6 6 6 6 5 3 1 3 3 4 4 4 9 9 10 4 4 7
Wind_Direction
50 50 64 77 96 103 96 93 96 106 122 138 120 85 83 65 65 81 85 72 61 71 61 49 49 42 35 25 18 306 263 301
78 82 86 86 77 103 98 102 114 150 122 85 78 118 42 54 69 62 56 67 66 65 61 52 49 59 48 43 356 0 335 339
88 82 93 93 108 116 124 128 159 145 151 174 120 148 113 77 69 54 56 63 69 74 80 71 60 69 54 41 51 7 322 12
91 102 102 93 110 115 110 114 110 81 75 88 63 58 70 62 51 51 51 82 87 89 89 88 85 83 98 74 45 56 346 330
114 110 104 91 61 64 84 98 97 78 54 70 79 82 91 39 76 82 65 88 120 129 96 87 91 83 64 76 72 70 62 359
146 126 105 99 96 95 92 89 74 64 62 68 77 75 87 125 142 161 191 224 6 17 253 159 128 108 103 92 56 37 101 241
145 89 116 111 101 79 72 75 61 64 78 85 104 120 151 163 245 198 233 236 251 256 229 34 38 39 273 106 357 357 343 323
86 90 72 90 95 85 87 88 85 79 82 80 86 114 238 263 260 253 260 260 245 258 154 182 189 253 271 290 280 290 291 276
119 113 120 117 98 98 98 95 100 105 97 91 1 285 271 270 266 269 261 250 253 195 194 165 315 291 286 258 277 274 267 274
140 136 141 115 107 96 102 104 131 258 24 12 351 343 336 299 294 288 311 323 293 247 278 229 245 266 274 268 248 266 271 273
159 164 151 139 134 127 118 127 207 272 38 19 13 357 357 345 329 323 320 298 264 210 221 236 247 265 272 262 269 264 262 277
172 172 151 127 126 108 95 90 65 54 41 34 24 346 338 347 350 311 270 247 234 239 218 240 266 298 274 256 261 275 270 273
165 163 156 175 140 131 117 106 122 99 61 26 313 333 351 336 303 277 267 256 260 273 261 271 287 290 267 258 272 298 290 301
168 170 189 199 156 117 137 173 165 176 236 294 308 287 277 284 291 299 300 305 304 273 279 292 291 280 281 286 234 333 294 283
191 205 210 199 142 176 186 190 209 261 259 254 253 261 269 291 306 308 303 289 274 274 273 273 275 291 79 97 48 320 306 304
202 197 204 182 193 206 200 224 247 250 256 260 260 293 302 300 295 288 299 310 293 293 313 313 320 87 68 49 349 328 317 311
199 190 206 204 199 200 211 247 270 271 285 285 299 297 302 285 287 308 311 309 309 319 3 53 52 51 26 10 27 1 352 337
192 199 208 196 198 193 228 280 307 313 295 293 281 287 296 288 302 304 302 299 305 346 79 79 64 52 34 10 14 359 341 320
207 206 185 161 171 201 306 309 305 301 299 288 295 298 286 292 302 299 292 285 311 126 100 81 86 42 16 4 350 336 320 305